Location: Falniów
(50.3639°N, 19.9642°E)
Time: 21:36:53
(UTC+00:00)

SMAP - Pass Details

Date: 18 January 2026
Orbit: 682 x 683 km, 98.1° (Epoch: 17 February)

Event Time Altitude Azimuth Distance (km) Brightness Sun altitude
Rises 05:12:29 0° 14° (NNE) 3,059 6.4 -12.3°
Reaches altitude 10° 05:14:44 10° 14° (NNE) 2,139 5.6 -12.0°
Maximum altitude 05:19:25 89° 297° (WNW) 690 3.1 -11.2°
Drops below altitude 10° 05:24:05 10° 196° (SSW) 2,121 5.6 -10.5°
Sets 05:26:18 0° 197° (SSW) 3,032 6.4 -10.2°
